Погода в Рисири

Япония     45°10′41″N   141°13′44″E
темп.,
°C
ветер,
м/с
пор.,
м/с
влажн.,
%
обл.,
%
осадки,
мм/ч
давл.,
гПа
погр.,
м
26 сентября, вс
вс2600:00+17зюз22625 0.0 1026696
03:00+17ююз1264100 0.0 1026760
06:00+17ююв1267100 0.0 1025620
09:00+17юз1267100 0.0 1025706
12:00+18зюз3465100 0.0 10241025
15:00+18юз4466100 0.0 10231012
18:00+18ююз2364100 0.0 1023813
21:00+17ююз22646 0.0 1023622
27 сентября, пн
пн2700:00+17юз23640 0.0 1022464
03:00+17ююз23650 0.0 1022644
06:00+17ю24651 0.0 1022747
09:00+18ю357396 0.1 1022926
12:00+18ююз357215 0.1 1021864
15:00+18ю337037 0.1 1020619
18:00+18ю1269100 0.0 1020283
21:00+18ююв2269100 0.0 1020317
28 сентября, вт
вт2800:00+18ю4574100 0.0 1019441
03:00+18ююз4777100 0.1 1019809
06:00+18ююз4675100 0.1 1019892
09:00+18ююз5874100 0.1 1019868
12:00+18ююз5774100 0.0 1018791
15:00+18ююз4674100 0.0 1018717
18:00+19ююз2375100 0.0 1018303
21:00+19ююз247974 0.0 1018213
29 сентября, ср
ср2900:00+19ю45805 0.0 1017346
03:00+18ююз35766 0.0 1018545
06:00+18ю34746 0.0 1018498
09:00+17ю337945 0.0 1017410
12:00+17ю3375100 0.0 1016322
15:00+18ю2272100 0.0 1015184
18:00+19ююв2270100 0.0 101577
21:00+18юв3372100 0.0 1013146
30 сентября, чт
чт3000:00+18ю3475100 0.0 1011373
03:00+17юв2275100 0.4 1010274
06:00+17юв4481100 0.8 1008360
09:00+15вюв7795100 16.9 1005454
12:00+17ююв61289100 19.5 1003962
15:00+17ююв5791100 25.3 1001470
18:00+18сз899572 8.1 1001393
21:00+17сз788897 8.2 1006586